Location: Dealu Mare
(46.0500°N, 22.8167°E)
Time: 21:02:37
(UTC+00:00)

ATLAS 2AS CENTAUR R/B - Pass Details

Date: 15 January 2026
Orbit: 1050 x 1161 km, 63.7° (Epoch: 10 February)

Event Time Altitude Azimuth Distance (km) Brightness Sun altitude
Exits shadow 05:26:59 - 317° (NW) 3,296 4.7 -7.0°
Reaches altitude 10° 05:28:11 10° 314° (NW) 2,873 4.4 -6.8°
Maximum altitude 05:34:41 53° 241° (WSW) 1,277 3.0 -5.8°
Drops below altitude 10° 05:41:12 10° 166° (SSE) 2,869 5.6 -4.8°
Sets 05:43:54 0° 162° (SSE) 3,829 6.3 -4.4°
